VK3BKO-13 Weather Reports


Display with metric or nautical units.
time (UTC)temp
F
wind
direction
speed
MPH
gust
MPH
rain 1hr
in
rain 24hr
in
rain mn
in
humidity
%
barometer
mb
20260504003204 65 12 7.0 9.0 0.00 0.00 0.00 61 1010.5
20260504001704 65 336 8.0 11.0 0.00 0.00 0.00 61 1010.5
20260504000204 64 342 5.0 7.0 0.00 0.00 0.00 62 1010.2
20260503234704 64 294 5.0 8.0 0.00 0.00 0.00 62 1010.5
20260503233204 63 354 7.0 9.0 0.00 0.00 0.00 62 1010.5
20260503231703 62 342 5.0 7.0 0.00 0.00 0.00 66 1010.5
20260503230203 61 7 3.0 6.0 0.00 0.00 0.00 67 1010.5
20260503224703 61 17 4.0 9.0 0.00 0.00 0.00 68 1010.5
20260503223203 60 346 2.0 3.0 0.00 0.00 0.00 69 1010.9
20260503221703 60 306 4.0 6.0 0.00 0.00 0.00 69 1010.9
20260503220203 59 1 4.0 6.0 0.00 0.00 0.00 70 1010.9
20260503214703 58 333 6.0 8.0 0.00 0.00 0.00 70 1010.9
20260503213203 58 6 3.0 4.0 0.00 0.00 0.00 71 1010.5
20260503211704 58 337 6.0 8.0 0.00 0.00 0.00 71 1010.5
20260503210204 58 358 2.0 2.0 0.00 0.00 0.00 71 1010.5
20260503204704 57 355 4.0 4.0 0.00 0.00 0.00 73 1010.5
20260503203203 56 319 3.0 4.0 0.00 0.00 0.00 74 1010.2
20260503201704 56 338 1.0 2.0 0.00 0.00 0.00 74 1010.2
20260503200204 57 352 2.0 3.0 0.00 0.00 0.00 73 1010.5
20260503194704 57 346 1.0 2.0 0.00 0.00 0.00 73 1010.2
20260503193204 56 344 3.0 4.0 0.00 0.00 0.00 74 1010.5
20260503191703 56 354 2.0 2.0 0.00 0.00 0.00 74 1010.9
20260503190203 57 343 4.0 6.0 0.00 0.00 0.00 74 1010.9
20260503184704 57 34 4.0 6.0 0.00 0.00 0.00 75 1010.9
20260503183204 57 340 0.0 0.0 0.00 0.00 0.00 76 1010.9
20260503181703 56 353 5.0 7.0 0.00 0.00 0.00 78 1010.9
20260503180203 56 352 3.0 3.0 0.00 0.00 0.00 79 1011.2
20260503174703 56 344 3.0 3.0 0.00 0.00 0.00 79 1011.2
20260503173203 56 359 1.0 2.0 0.00 0.00 0.00 79 1011.5
20260503171704 56 327 3.0 4.0 0.00 0.00 0.00 80 1011.2
20260503170204 56 0 3.0 3.0 0.00 0.00 0.00 79 1011.5
20260503160203 56 334 2.0 2.0 0.00 0.00 0.00 80 1011.5
20260503150204 56 11 2.0 3.0 0.00 0.00 0.00 80 1011.5
20260503140204 58 53 2.0 2.0 0.00 0.00 0.00 79 1011.9
20260503130203 58 329 3.0 3.0 0.00 0.00 0.50 79 1011.9
20260503120204 59 352 2.0 3.0 0.00 0.00 0.50 76 1012.2
20260503110204 58 348 1.0 1.0 0.00 0.00 0.50 77 1012.2
20260503100204 58 347 2.0 2.0 0.00 0.00 0.50 78 1012.2
20260503090203 58 356 1.0 1.0 0.00 0.00 0.50 79 1011.9
20260503080204 59 335 0.0 0.0 0.00 0.00 0.50 85 1010.5
20260503071703 63 323 2.0 3.0 0.00 0.00 0.50 78 1009.9
20260503070203 64 324 4.0 4.0 0.00 0.00 0.50 77 1009.9
20260503060204 62 323 2.0 2.0 0.00 0.00 0.50 86 1009.9
20260503054704 62 342 4.0 4.0 0.02 0.00 0.50 85 1009.9
20260503053204 63 9 4.0 6.0 0.01 0.00 0.49 86 1009.9
20260503051704 62 327 3.0 4.0 0.01 0.00 0.49 87 1009.9
20260503050204 65 272 6.0 7.0 0.01 0.00 0.49 88 1009.9
20260503044704 66 11 4.0 7.0 0.02 0.00 0.41 84 1009.5
20260503043204 68 316 5.0 7.0 0.00 0.00 0.39 76 1009.2
20260503041703 70 343 4.0 4.0 0.00 0.00 0.39 73 1009.2
20260503040203 69 259 8.0 12.0 0.00 0.00 0.39 75 1009.2
20260503034703 69 341 6.0 8.0 0.00 0.00 0.39 75 1009.2
20260503033204 67 256 9.0 11.0 0.00 0.00 0.39 77 1009.5
20260503031704 67 0 5.0 7.0 0.00 0.00 0.39 79 1009.5
20260503030204 68 349 7.0 8.0 0.00 0.00 0.39 77 1009.5
20260503024704 69 5 8.0 12.0 0.01 0.00 0.39 75 1009.9
20260503023203 68 198 6.0 11.0 0.01 0.00 0.39 80 1009.5
20260503021704 65 42 5.0 7.0 0.01 0.00 0.39 84 1009.5
20260503020204 64 5 5.0 7.0 0.01 0.00 0.39 86 1009.2
20260503014704 64 7 5.0 7.0 0.15 0.00 0.36 86 1009.2
20260503013204 64 87 8.0 10.0 0.11 0.00 0.32 89 1010.5
20260503011704 64 342 6.0 9.0 0.03 0.00 0.24 89 1010.9
20260503010204 64 6 4.0 6.0 0.01 0.00 0.22 89 1010.5
20260503004704 64 72 4.0 7.0 0.13 0.00 0.15 87 1010.5